Content
SEND FEEDBACK

Daily
Averages
Monthly
Summary
United States of America

DANVILLE, VIRGINIA


Home > North America > United States > Virginia
Elevation: 582 feet     Latitude: 36 34N     Longitude: 079 20W

WEATHER
 
SELECT A DAY
Number of Records: 198,071;   Date Range: 1/1/95 - 9/20/14
 
SHARE

PRINT THIS DATA

[ ← Previous Day ]
WEATHER ALMANAC - FEBRUARY 13, 2013
[ Next Day → ]
[ °C ]   °F
Weather ElementAverageHighLow
Temperature44.9 °F46.4 °F (1:42 pm)37.9 °F (11:53 pm)
Dewpoint41.7 °F43 °F (12:53 pm)30 °F (11:53 pm)
Humidity88.6 %93 % (6:53 am)70 % (9:53 pm)
Barometer29.73 in29.88 in (1:53 am)29.63 in (3:53 pm)
Wind Speed3.3 mph13.8 mph (8:53 pm)
Wind Gust23 mph (8:53 pm)
Weather ElementAverage
Visibility6.5 mi
Wind DirectionESE (112.6 °)

Weather ElementTotal
Precipitation0.67 in
Heating Degree Days22.9 (Base 65)
Averaged from 57 records on February 13, 2013
WEATHER CONDITIONS BREAKOUT
WIND DIRECTION BREAKOUT
WEATHER BY HOUR - FEBRUARY 13, 2013
[ °C ]   °F
Local TimeTemperatureDewpointHumidityBarometerVisibilityWind DirectionWind SpeedGust SpeedPrecipitationEventsConditions
1:53 AM45.0 °F41.0 °F86 %29.88 in10.0 miNE (50°)3.5 mphOvercast
2:53 AM45.0 °F41.0 °F86 %29.85 in10.0 miCalmOvercast
3:53 AM44.1 °F41.0 °F89 %29.82 in10.0 miCalmMostly Cloudy
4:53 AM44.1 °F41.0 °F89 %29.81 in10.0 miCalm0.00 inRainLight Rain
5:53 AM44.1 °F41.0 °F89 %29.83 in9.0 miSW (230°)5.8 mph0.02 inRainLight Rain
6:53 AM44.1 °F42.1 °F93 %29.80 in10.0 miCalm0.04 inRainLight Rain
7:46 AM44.6 °F42.8 °F93 %29.82 in2.0 miCalm0.05 inRainLight Rain
7:53 AM44.1 °F42.1 °F93 %29.82 in3.0 miCalm0.06 inRainLight Rain
8:33 AM44.6 °F41.0 °F87 %29.86 in2.5 miSW (220°)5.8 mph0.06 inRainRain
8:40 AM44.6 °F42.8 °F93 %29.84 in3.0 miCalm0.07 inRainLight Rain
8:47 AM44.6 °F42.8 °F93 %29.84 in2.5 miSouth (170°)3.5 mph0.09 inRainLight Rain
8:48 AM44.1 °F42.1 °F93 %29.83 in2.5 miSouth (170°)3.5 mph0.09 inRainLight Rain
9:03 AM44.6 °F42.8 °F93 %29.83 in4.0 miSouth (170°)3.5 mph0.02 inRainLight Rain
9:20 AM44.6 °F42.8 °F93 %29.83 in6.0 miCalm0.02 inRainLight Rain
9:29 AM44.6 °F41.0 °F87 %29.82 in10.0 miCalm0.02 inOvercast
9:53 AM44.1 °F41.0 °F89 %29.78 in6.0 miESE (120°)3.5 mph0.02 inRainLight Rain
10:35 AM44.6 °F41.0 °F87 %29.78 in9.0 miCalm0.01 inOvercast
10:42 AM44.6 °F41.0 °F87 %29.78 in10.0 miEast (100°)3.5 mph0.01 inOvercast
10:53 AM45.0 °F41.0 °F86 %29.76 in10.0 miVariable3.5 mph0.01 inOvercast
11:07 AM44.6 °F42.8 °F93 %29.78 in10.0 miSE (130°)4.6 mphOvercast
11:41 AM44.6 °F42.8 °F93 %29.76 in2.5 miCalmOvercast
11:53 AM45.0 °F42.1 °F90 %29.73 in2.0 miEast (80°)4.6 mphOvercast
12:04 PM44.6 °F42.8 °F93 %29.73 in3.0 miVariable3.5 mphOvercast
12:17 PM44.6 °F42.8 °F93 %29.73 in2.0 miEast (90°)3.5 mphOvercast
12:45 PM44.6 °F42.8 °F93 %29.71 in1.8 miCalm0.01 inOvercast
12:53 PM45.0 °F43.0 °F93 %29.68 in1.8 miCalm0.01 inOvercast
1:12 PM44.6 °F42.8 °F93 %29.67 in2.0 miCalmOvercast
1:34 PM44.6 °F42.8 °F93 %29.67 in2.5 miCalm0.01 inOvercast
1:42 PM46.4 °F42.8 °F87 %29.67 in3.0 miCalm0.01 inOvercast
1:53 PM45.0 °F43.0 °F93 %29.65 in2.5 miCalm0.01 inOvercast
2:03 PM44.6 °F42.8 °F93 %29.65 in1.8 miCalmOvercast
2:11 PM44.6 °F42.8 °F93 %29.64 in2.0 miCalmOvercast
2:24 PM44.6 °F42.8 °F93 %29.65 in2.5 miCalmOvercast
2:32 PM46.4 °F42.8 °F87 %29.64 in3.0 miCalmOvercast
2:48 PM46.4 °F42.8 °F87 %29.64 in9.0 miCalmOvercast
2:53 PM46.0 °F42.1 °F86 %29.64 in6.0 miSW (230°)4.6 mphOvercast
3:17 PM44.6 °F42.8 °F93 %29.64 in2.0 miVariable3.5 mph0.01 inOvercast
3:34 PM44.6 °F42.8 °F93 %29.64 in3.0 miVariable3.5 mph0.01 inOvercast
3:53 PM46.0 °F43.0 °F89 %29.63 in7.0 miSW (230°)3.5 mph0.01 inOvercast
4:22 PM46.4 °F42.8 °F87 %29.64 in4.0 miSW (230°)4.6 mphOvercast
4:53 PM46.0 °F43.0 °F89 %29.64 in10.0 miWSW (250°)4.6 mphOvercast
4:55 PM46.4 °F42.8 °F87 %29.66 in10.0 miWest (260°)5.8 mphOvercast
5:02 PM46.4 °F42.8 °F87 %29.65 in9.0 miSW (230°)5.8 mphOvercast
5:28 PM46.4 °F42.8 °F87 %29.66 in8.0 miSW (220°)3.5 mph0.00 inOvercast
5:45 PM46.4 °F42.8 °F87 %29.66 in10.0 miSW (230°)4.6 mph0.00 inOvercast
5:53 PM46.0 °F43.0 °F89 %29.65 in10.0 miSW (220°)4.6 mph0.00 inOvercast
6:03 PM46.4 °F42.8 °F87 %29.66 in10.0 miSW (220°)4.6 mphOvercast
6:23 PM46.4 °F42.8 °F87 %29.66 in10.0 miSSW (210°)3.5 mphOvercast
6:53 PM46.0 °F43.0 °F89 %29.67 in10.0 miSW (220°)5.8 mphOvercast
7:42 PM46.4 °F42.8 °F87 %29.70 in10.0 miWSW (240°)8.1 mphOvercast
7:53 PM46.0 °F43.0 °F89 %29.70 in10.0 miWSW (250°)11.5 mph0.00 inRainLight Rain
8:15 PM46.4 °F42.8 °F87 %29.72 in10.0 miWest (260°)11.5 mph0.00 inOvercast
8:22 PM46.4 °F42.8 °F87 %29.72 in10.0 miWest (260°)11.5 mph0.00 inMostly Cloudy
8:53 PM45.0 °F37.0 °F74 %29.73 in10.0 miWNW (290°)13.8 mph23.0 mph0.00 inClear
9:53 PM42.1 °F33.1 °F70 %29.77 in10.0 miWNW (290°)6.9 mphClear
10:53 PM39.0 °F30.9 °F73 %29.81 in10.0 miWest (270°)4.6 mphClear
11:53 PM37.9 °F30.0 °F73 %29.82 in10.0 miWest (280°)3.5 mphClear
Hourly data recorded from KDAN, located miles away from Danville, Virginia







STORIES FROM OUR PARTNERS